close



Agen Poker

Jackpot

Texas Poker Multi Jackpot System

Kini Telah hadir Jackpot SUPER ROYAL FLUSH

Kini Telah hadir Jackpot 2000 (khusus table VIP keatas).

Ikutilah global jackpot yang tersedia di system kami, dengan system jackpot terbaru dan pertama di indonesia, anda dapat membeli jackpot dengan harga 100 rupiah saja dan menangkan hadiahnya hingga puluhan juta rupiah.

Jackpot bukanlah suatu keharusan untuk dibeli, namun kami memberikan suatu fitur tambahan untuk member tercinta dari www.asiapoker.net.

Terdapat tiga pilihan harga jackpot yang bisa anda beli yaitu :100,500,1000 dan 2000(khusus table VIP Keatas) rupiah.

Hadiah dari Multi jackpot system www.asiapoker.net

  1. full house x 10 harga jackpot yang anda beli.
      (contoh:anda membeli 1000 maka:1000 X10 = 10.000)
  2. four of kind x 250 harga jackpot yang anda beli
      (contoh:anda membeli 1000 maka:1000 X250 = 250.000)
  3. Straight flush x 1200
      (contoh:anda membeli 1000 maka:1000 X1200 = 1.200.000)
  4. Royal flush x 10000 harga jackpot yang anda beli
      (contoh:anda membeli 1000 maka:1000 X10000 = 10.000.000)
  5. SUPER ROYAL FLUSH x 30000 harga jackpot yang anda beli
      (contoh:anda membeli 1000 maka:1000 X30000 = 30.000.000)

Kondisi kartu

  1. full house adalah kondisi kartu dimana kartu anda dan kartu tengah dengan total 7 kartu bisa mendapatkan nilai 5 kartu dengan kombinasi 1 tris(three of kind) dan 1 pair, contoh 3 kartu 10 dan 2 kartu 5
  2. Four of kind adalah kondisi kartu dimana kartu anda dan kartu tengah dengan total 7 kartu bisa mendapatkan nilai 5 kartu dengan kombinasi 4 kartu yang sama jumlah dan 1 kartu apapun juga contoh anda mendapatkan 4 buah kartu angka 3 dan 1 kartu apapun.
  3. Staright flush adalah kondisi kartu dimana kartu anda dan kartu tengah dengan total 7 kartu bisa mendapatkan nilai 5 kartu dengan kombinasi seri / staright dengan kembang yang sama contoh : urutan kartu dari angka 5, 6, 7, 8 , 9 10 dengan kembang yg sama misalnya as hati
  4. Royal flush adalah kondisi kartu dimana kartu anda dan kartu tengah dengan total 7 kartu bisa mendapatkan nilai 5 kartu dengan kombinasi seri / staright dengan kembang yang sama tetapi kartu tersebut haruslah dimulai dari 10. contoh 10, Queen, Jack, King dan aces dengan kembang yang sama
  5. Super Royal flush adalah kondisi kartu dimana Kedua kartu anda digabung dengan 3 kartu pertama meja haruslah royal flush. contoh kartu anda 10,Queen kembang sama dan 3 kartu pertama meja adalah Jack, King dan aces dengan kembang yang sama

Demikian adalah penjelasan dari Multi Jackpot www.asiapoker.net terima kasih dan selamat bermain salam hoki dari kami

Texas Poker Jackpot Winner

TOP SUPER ROYAL FLUSH
No.TanggalNamaPriceWin
122/02 23:18DJANUR_4Super Royal flush30,000,000
222/02 22:35LONT39Super Royal flush6,000,000
322/02 20:10RAHARJO99Super Royal flush6,000,000
422/02 19:28KPANX27Super Royal flush6,000,000
522/02 19:24JENAR21Super Royal flush3,000,000
TOP ROYAL FLUSH
No.TanggalNamaPriceWin
122/02 23:06MILEYA022Royal flush5,000,000
222/02 23:03NENG_GELISRoyal flush10,000,000
322/02 23:01PEV44Royal flush2,000,000
422/02 22:34KADRURoyal flush5,000,000
522/02 21:55SUYARoyal flush5,000,000
TOP STRAIGHT FLUSH
No.TanggalNamaPriceWin
122/02 23:24JAYAMAINStraight Flush600,000
222/02 23:12C2C49986Straight Flush240,000
322/02 23:12K2D9ZWRQ4SStraight Flush1,200,000
422/02 23:11A52E7043Straight Flush120,000
522/02 23:11SICKBOY1Straight Flush240,000
LATEST JACKPOT
No.TanggalNamaPriceWin
122/02 23:25RIBAZ27Full House1,000
222/02 23:24AKUANG7788Full House1,000
322/02 23:24041184Full House2,000
422/02 23:24SERDATU_80Full House5,000
522/02 23:24CEPOTENGFull House2,000
622/02 23:24OTONGCCFull House2,000
722/02 23:24JONIINDO12Full House2,000
822/02 23:24MATTRIXFour Of A Kind50,000
922/02 23:24BL4NC0N99Full House10,000
1022/02 23:24NUGHA77Full House1,000
1122/02 23:24THEK87Full House1,000
1222/02 23:24INDRA913Full House2,000
1322/02 23:24AS366Full House5,000
1422/02 23:24FIRESALEFull House2,000
1522/02 23:24H4R1234Full House10,000
1622/02 23:24DOGEK17Full House1,000
1722/02 23:24ALX92Full House5,000
1822/02 23:24MERMED99Full House5,000
1922/02 23:24KETY900Full House2,000
2022/02 23:24AADRAUDR40Full House10,000
2122/02 23:24DJ5XAKOQH3Full House5,000
2222/02 23:24NASMO_79Full House10,000
2322/02 23:24FURMULA9Full House10,000
2422/02 23:24SALES27Full House5,000
2522/02 23:24LUDOJUDIFull House2,000
2622/02 23:24MISS_FDFull House1,000
2722/02 23:24DAM29Full House5,000
2822/02 23:24CS3SW4OY1SFull House5,000
2922/02 23:24GATAN55Full House5,000
3022/02 23:24DOIDANKHOIFour Of A Kind250,000
3122/02 23:24GSTLOFull House2,000
3222/02 23:24VOODO88Full House2,000
3322/02 23:24GEMINI24Full House10,000
3422/02 23:24SAGATT21Full House2,000
3522/02 23:24ARMANBAGFull House10,000
3622/02 23:24L3HUG4Full House2,000
3722/02 23:24A123AAAFull House2,000
3822/02 23:24DPROFESSORFull House2,000
3922/02 23:24JK426786Full House2,000
4022/02 23:24CMD7727Full House1,000
4122/02 23:24M0V1N6SFull House1,000
4222/02 23:24SARWITFull House2,000
4322/02 23:24OGUYGYGYFull House5,000
4422/02 23:24LOVELYHANFull House2,000
4522/02 23:24MARGELAAPFull House2,000
4622/02 23:24NDOT89Full House2,000
4722/02 23:24DEEP51Full House2,000
4822/02 23:24JAYAMAINStraight Flush600,000
4922/02 23:24TARGET2MFull House500
5022/02 23:24ASH3NG88Full House2,000

Domino Multi Jackpot System

Ikutilah global jackpot yang tersedia di system kami, dengan system jackpot terbaru dan pertama di indonesia, anda dapat membeli jackpot dengan harga 100 rupiah saja dan menangkan hadiahnya hingga puluhan juta rupiah.

Jackpot bukanlah suatu keharusan untuk dibeli, namun kami memberikan suatu fitur tambahan untuk member tercinta dari www.asiapoker.net.

Terdapat tiga pilihan harga jackpot yang bisa anda beli yaitu :100,500 dan 1000 rupiah.

Hadiah dari Multi jackpot system www.asiapoker.net

  1. Murni Kecil x 50 harga jackpot yang anda beli.
      (contoh:anda membeli 1000 maka:1000 X 50 = 50.000)
  2. Murni Besar x 50 harga jackpot yang anda beli
      (contoh:anda membeli 1000 maka:1000 X 50 = 50.000)
  3. BALAK x 100 harga jackpot yang anda beli
      (contoh:anda membeli 1000 maka:1000 X 100 = 100.000)
  4. ENAM DEWA x 6666 harga jackpot yang anda beli
      (contoh:anda membeli 1000 maka:1000 X 6666 = 6.666.000)

Demikian adalah penjelasan dari Multi Jackpot www.asiapoker.net terima kasih dan selamat bermain salam hoki dari kami

Domino Jackpot Winner

TOP ENAM DEWA
No.TanggalNamaPriceWin
122/02 22:38PAMONmurni enam6,666,000
222/02 19:25DXX00murni enam6,666,000
322/02 18:44G_A_R_A_Ymurni enam6,666,000
422/02 18:16VALATA777murni enam6,666,000
522/02 15:22JI3NK94murni enam3,333,000
TOP BALAK
No.TanggalNamaPriceWin
122/02 23:24KAKILIMA90balak50,000
222/02 23:24DEWWA17balak100,000
322/02 23:24IKHROMXX1balak50,000
422/02 23:23VERIEKObalak100,000
522/02 23:22BOPENGGGbalak50,000
LATEST JACKPOT
No.TanggalNamaPriceWin
122/02 23:24KAKILIMA90balak50,000
222/02 23:2478_JIHADmurni besar50,000
322/02 23:24TERRRMOSmurni kecil25,000
422/02 23:24DEWWA17balak100,000
522/02 23:24KONCEX87lucky9910,000
622/02 23:24EX_CELLmurni besar5,000
722/02 23:24IKHROMXX1balak50,000
822/02 23:24DESYSlucky9950,000
922/02 23:23YKB88043murni besar50,000
1022/02 23:23VERIEKObalak100,000
1122/02 23:23TONI2805murni kecil5,000
1222/02 23:22BOPENGGGbalak50,000
1322/02 23:22BP883256murni kecil25,000
1422/02 23:21KHAIRUL889murni kecil5,000
1522/02 23:21TOHIR77CIKmurni besar25,000
1622/02 23:20UJANGJAYmurni kecil50,000
1722/02 23:20URANG813balak100,000
1822/02 23:19LB883710murni kecil50,000
1922/02 23:19GANES234balak10,000
2022/02 23:19SOFY87murni besar25,000
2122/02 23:17BALENO2002murni besar50,000
2222/02 23:17BR4NBRYNmurni besar50,000
2322/02 23:16GBK188murni besar50,000
2422/02 23:16CAHBLATERmurni kecil50,000
2522/02 23:16BASSURA66murni besar25,000
2622/02 23:16KZ00Tbalak100,000
2722/02 23:15LK4DKESIK21murni kecil5,000
2822/02 23:15CIBIQQmurni kecil50,000
2922/02 23:15TIKO91murni kecil50,000
3022/02 23:15RUPIT91murni kecil25,000
3122/02 23:15KELAYUNG74murni kecil50,000
3222/02 23:15MASTOBILlucky9950,000
3322/02 23:15ANDREATITAmurni kecil50,000
3422/02 23:14BALENO2002murni besar50,000
3522/02 23:14NOTTEEmurni besar50,000
3622/02 23:14BP883256murni besar25,000
3722/02 23:13LVYJDQYCBHmurni besar50,000
3822/02 23:13GAYUS19balak100,000
3922/02 23:13LFV2EXCWQAmurni besar5,000
4022/02 23:13SPORTLIAmurni besar50,000
4122/02 23:12D3W4D3D3balak100,000
4222/02 23:12JANTILbalak50,000
4322/02 23:11HELIOS73murni besar5,000
4422/02 23:11DEWWA17murni kecil50,000
4522/02 23:10KELAYUNG74murni besar50,000
4622/02 23:10GOPUR1412murni besar50,000
4722/02 23:10AACHAA776lucky9925,000
4822/02 23:10NDASE5678murni besar5,000
4922/02 23:09EMPAT66murni besar25,000
5022/02 23:09KU827289murni kecil50,000

Ceme Multi Jackpot System

Jackpot dilihat dari gabungan kartu pemain dengan kartu bandar. Bandar harus membeli jackpot sebanyak jumlah player yang sedang duduk. Sebagai contoh bila terdapat 3 pemain duduk bermain, dan bandar memutuskan untuk membeli jackpot Rp 1.000, maka pada periode tersebut bandar akan membeli jackpot sebanyak 3xRp1.000 = Rp3.000.

Jackpot bukanlah suatu keharusan untuk dibeli, namun kami memberikan suatu fitur tambahan untuk member tercinta dari www.asiapoker.net.

Terdapat tiga pilihan harga jackpot yang bisa anda beli yaitu :100,500 dan 1000 rupiah.

Hadiah dari Multi jackpot system www.asiapoker.net

  1. Murni Kecil x 50 harga jackpot yang anda beli.
      (contoh:anda membeli 1000 maka:1000 X 50 = 50.000)
  2. Murni Besar x 50 harga jackpot yang anda beli
      (contoh:anda membeli 1000 maka:1000 X 50 = 50.000)
  3. BALAK x 200 harga jackpot yang anda beli
      (contoh:anda membeli 1000 maka:1000 X 200 = 200.000)
  4. ENAM DEWA x 6666 harga jackpot yang anda beli
      (contoh:anda membeli 1000 maka:1000 X 6666 = 6.666.000)

Demikian adalah penjelasan dari Multi Jackpot www.asiapoker.net terima kasih dan selamat bermain salam hoki dari kami

Ceme Jackpot Winner

TOP ENAM DEWA
No.TanggalNamaPriceWin
122/02 23:19BLEHUR18murni enam666,600
222/02 23:19GANNOL99murni enam6,666,000
322/02 23:11HOKUNO01murni enam6,666,000
422/02 23:11IPUNK193murni enam6,666,000
522/02 23:11LZ101923murni enam6,666,000
TOP BALAK
No.TanggalNamaPriceWin
122/02 23:24BF08E602balak100,000
222/02 23:23GYO98balak200,000
322/02 23:23SEKSKKbalak100,000
422/02 23:23TYAN791balak20,000
522/02 23:22QZRUUHbalak200,000
LATEST JACKPOT
No.TanggalNamaPriceWin
122/02 23:24NIHER007murni kecil25,000
222/02 23:24MAKWEN95murni kecil25,000
322/02 23:24J0H44Nmurni besar50,000
422/02 23:24B4ND1T15murni besar5,000
522/02 23:24BF08E602balak100,000
622/02 23:24JEMBUTPINKmurni besar5,000
722/02 23:24HORE_2murni besar25,000
822/02 23:24JEFFRI99murni kecil50,000
922/02 23:24MATPOSING9murni kecil50,000
1022/02 23:23GYO98balak200,000
1122/02 23:23SEKSKKbalak100,000
1222/02 23:23PKUN88murni kecil50,000
1322/02 23:23EKO11Smurni besar50,000
1422/02 23:23JUNIOR0705murni besar5,000
1522/02 23:23TYAN791balak20,000
1622/02 23:23YXLNR6Z9XImurni kecil25,000
1722/02 23:23STRONGWALmurni kecil50,000
1822/02 23:23BANPO77murni kecil5,000
1922/02 23:23SIDNEY120murni besar50,000
2022/02 23:23GEVIN238murni kecil50,000
2122/02 23:23C4TUR888murni kecil5,000
2222/02 23:23SC0PYKUmurni kecil5,000
2322/02 23:23QIPOTmurni kecil25,000
2422/02 23:22QZRUUHbalak200,000
2522/02 23:22ZEDIDAbalak200,000
2622/02 23:22IBOR147murni besar50,000
2722/02 23:22TABLEEXXmurni besar25,000
2822/02 23:22HOPKINbalak200,000
2922/02 23:22LELEGURAmurni kecil25,000
3022/02 23:22KIMJEFRY77murni kecil50,000
3122/02 23:22BENBENDOT5balak100,000
3222/02 23:22C4TUR888murni besar5,000
3322/02 23:22KULOK378murni besar5,000
3422/02 23:21ADIINYONKbalak100,000
3522/02 23:21WW111222balak200,000
3622/02 23:21LELEGURAmurni kecil25,000
3722/02 23:21J0H44Nmurni kecil50,000
3822/02 23:21POKERJITU2murni kecil5,000
3922/02 23:21REDEYE3murni besar5,000
4022/02 23:21LIJINOFXbalak100,000
4122/02 23:21GAVIN46murni kecil50,000
4222/02 23:21HENLI75murni kecil50,000
4322/02 23:21HOYOONG99murni besar50,000
4422/02 23:21TALBO_25murni besar50,000
4522/02 23:21RIKI207balak200,000
4622/02 23:21AMEH14balak100,000
4722/02 23:21RIKI207murni kecil50,000
4822/02 23:21KUBAMBROmurni kecil25,000
4922/02 23:21HOPKINmurni kecil50,000
5022/02 23:21RBACULmurni kecil5,000